User: anonymous   Login
Location: Raleigh
(35.7720°N, 78.6390°W)
Time: 23:52:40
(UTC-04:00)
Language:

JAS-2 - Orbit

View from above orbital plane
View from above orbital plane
View from above satellite
View from above satellite

Ground track
Ground track

The orbit data is extracted from the following two-line orbital elements,

1 24278U 96046B   15243.51462459 -.00000044  00000-0 -69827-5 0  9996
2 24278 098.5488 202.1512 0349501 235.4485 243.9734 13.53055702940212
Epoch (UTC): 31 August 2015 12:21:03
Eccentricity: 0.0349501
inclination: 98.5488°
perigee height: 801 km
apogee height: 1321 km
right ascension of ascending node: 202.1512°
argument of perigee: 235.4485°
revolutions per day: 13.53055702
mean anomaly at epoch: 243.9734°
orbit number at epoch: 94021

The dashed part of the orbit path shows where the satellite is in the earth's shadow,  

DLR